#timestamp,LO_Frequency,Hit,StdDev 
1681113615.3,286046995.0,N
1681113635.1,286046994.0,N
1681113655.9,286046992.3,N
1681113675.7,286046988.9,N
1681113695.6,286046986.9,N
1681113715.4,286046987.4,N
1681113735.2,286046989.8,N
1681113755.1,286046991.2,N
1681113756.0,286046991.2,N
1681113775.8,286046991.1,N
1681113795.7,286046990.7,N
1681113815.5,286046988.5,N
1681113835.3,286046990.5,N
1681113855.2,286046990.1,N
1681113875.0,286046992.8,N
1681113875.9,286046992.8,N
1681113895.8,286046990.1,N
1681113915.6,286046991.3,N
1681113935.4,286046991.3,N
1681113955.3,286046988.9,N
1681113975.1,286046989.8,N
1681113995.9,286046987.1,N
1681114015.7,286046986.9,N
1681114035.5,286046988.5,N
1681114055.4,286046991.2,N
1681114075.2,286046993.2,N
1681114095.0,286046993.0,N
1681114095.9,286046993.0,N
1681114115.8,286046990.2,Y
1681114135.6,286047002.2,P
1681114155.5,286047002.2,N
1681114175.3,286047004.4,N
1681114195.1,286047003.7,N
1681114215.9,286047003.8,N
1681114235.7,286047003.8,N
1681114255.5,286047003.9,N
1681114275.4,286047003.6,N
1681114295.2,286047003.0,N
1681114315.1,286047003.0,N
1681114316.0,286047003.0,N
1681114335.8,286047005.6,N
1681114355.6,286047005.6,N
1681114375.5,286047005.0,N
1681114395.3,286047005.0,N
1681114415.1,286047003.3,N
1681114435.9,286047003.3,N
1681114455.7,286047005.9,N
1681114475.6,286047005.7,N
1681114495.4,286047005.7,N
1681114515.3,286047004.8,N
1681114535.1,286047005.4,N
1681114536.0,286047005.4,N
1681114555.8,286047005.4,N
1681114575.7,286047004.9,N
1681114595.5,286047004.5,N
1681114615.4,286047004.7,N
1681114635.2,286047004.9,N
1681114655.0,286047007.0,N
1681114655.9,286047007.0,N
1681114675.8,286047006.5,Y
1681114695.6,286047004.2,P
1681114715.5,286047001.8,P
1681114735.3,286047001.5,N
1681114755.1,286047003.6,N
1681114775.9,286047006.0,Y
1681114795.7,286047000.5,P
1681114815.6,286047000.2,N
1681114835.4,286047002.1,N
1681114855.2,286047002.3,N
1681114875.1,286047002.7,N
1681114876.0,286047002.7,N
1681114895.8,286046999.7,N
1681114915.7,286047002.6,N
1681114935.5,286047004.0,Y
1681114955.4,286047000.8,P
1681114975.2,286046998.9,N
1681114995.0,286047001.1,N
1681114995.9,286047001.1,N
1681115015.8,286047000.3,N
1681115065.6,286047001.3,E
1681115075.6,286047001.5,N
1681115095.4,286047002.7,P
1681115115.2,286047000.2,N
1681115135.1,286046999.9,N
1681115136.0,286046999.9,N
1681115155.8,286046998.2,N
1681115175.6,286047002.8,N
1681115195.5,286047002.8,N
1681115215.3,286047000.5,N
1681115235.2,286047000.0,N
1681115255.9,286046998.2,N
1681115275.7,286046998.5,N
1681115295.6,286046998.6,N
1681115315.4,286046999.0,N
1681115335.3,286046998.5,N
1681115355.1,286046998.6,N
1681115356.0,286046998.6,N
1681115375.8,286047001.0,N
1681115395.7,286047000.9,N
1681115415.5,286047002.7,N
1681115435.3,286047001.8,N
1681115455.2,286047004.1,N
1681115475.0,286047003.9,N
1681115475.9,286047003.9,N
1681115495.8,286047004.0,N
1681115515.6,286047001.4,N
1681115535.4,286047001.4,N
1681115555.3,286047002.1,N
1681115575.1,286047002.5,N
1681115595.8,286047001.7,N
1681115615.7,286047003.6,N
1681115635.5,286047004.2,N
1681115655.4,286047003.9,N
1681115675.2,286047003.5,N
1681115695.0,286047005.8,N
1681115695.9,286047005.8,N
1681115715.8,286047007.3,Y
1681115735.9,286047003.8,P
1681115755.7,286047001.9,N
1681115775.6,286047002.3,N
1681115795.4,286047002.3,N
1681115815.3,286047001.4,N
1681115835.1,286047002.5,Y
1681115836.0,286047002.5,P
1681115855.8,286047000.6,P
1681115875.7,286047002.8,P
1681115895.5,286047000.8,N
1681115915.3,286047000.7,N
1681115935.2,286047000.9,N
1681115955.0,286047002.8,Y
1681115955.9,286047002.8,P
1681115975.8,286046998.5,N
1681115995.6,286047000.9,N
1681116015.4,286047000.3,N
1681116035.3,286047000.5,N
1681116055.1,286046999.9,N
1681116075.9,286046999.7,N
1681116095.7,286047000.2,N
1681116115.5,286047000.2,N
1681116135.4,286047000.4,N
1681116155.2,286046998.9,N
1681116175.0,286046998.7,N
1681116176.0,286046998.7,N
1681116195.8,286046998.7,N
1681116215.6,286047001.2,N
1681116235.5,286047001.2,N
1681116255.3,286047000.5,N
1681116275.1,286047001.1,N
1681116295.9,286047000.9,N
1681116315.7,286047002.7,N
1681116335.6,286046999.7,N
1681116355.4,286047002.2,N
1681116375.2,286047002.2,N
1681116395.1,286047000.1,N
1681116396.0,286047000.1,N
1681116415.8,286047001.0,N
1681116435.6,286047000.4,N
1681116455.5,286047000.2,N
1681116475.3,286047000.1,N
1681116495.2,286046999.7,N
1681116515.9,286047000.5,N
1681116535.7,286046998.1,N
1681116555.6,286046999.7,N
1681116575.4,286047002.4,N
1681116595.3,286047011.9,Y
1681116615.1,286047000.4,P
1681116616.0,286047000.4,P
1681116635.8,286047002.7,P
1681116655.7,286047002.6,N
1681116675.5,286047002.7,N
1681116695.4,286047002.8,N
1681116715.2,286046999.8,N
1681116735.0,286047002.5,N
1681116735.9,286047002.5,N
1681116755.8,286046999.9,N
1681116775.6,286047002.4,N
1681116795.4,286047001.4,N
1681116815.3,286047004.4,Y
1681116835.1,286047000.8,P
1681116855.9,286047000.4,N
1681116875.7,286047001.1,N
1681116895.5,286046998.8,N
1681116915.4,286046998.2,N
1681116935.2,286047000.6,N
1681116955.1,286046998.4,N
1681116956.0,286046998.4,N
1681116975.8,286046999.9,N
1681116995.6,286047000.8,N
1681117015.5,286046999.7,N
1681117035.3,286047002.6,N
1681117055.1,286047001.0,N
1681117075.9,286047001.9,N
1681117095.7,286047001.5,N
1681117115.6,286047001.8,N
1681117135.4,286047001.5,N
1681117155.2,286047004.1,Y
1681117175.1,286047004.4,P
1681117176.0,286047004.4,N
1681117195.8,286047001.7,N
